Regional Weather Roundup
Issued by NWS

Home | Current Version | Previous Version | Text Only | Print | Product List | Glossary Off
Versions: 1 2 3 4 5 6 7 8 9 10 11 12 13 14 15 16 17 18 19 20 21 22 23 24 25 26 27 28 29 30 31 32 33 34 35 36 37 38 39 40 41 42 43 44 45 46 47 48 49 50

119
ASUS43 KDTX 211001
RWRMI
MICHIGAN HOURLY REGIONAL WEATHER ROUNDUP
NATIONAL WEATHER SERVICE DETROIT/PONTIAC MI
500 AM EST WED FEB 21 2018

NOTE: "FAIR" INDICATES FEW OR NO CLOUDS BELOW 12,000 FEET WITH NO
SIGNIFICANT WEATHER AND/OR OBSTRUCTION TO VISIBILITY.

MIZ047>049-052>055-059>063-066>070-074>076-081>083-211100-
SOUTHEAST LOWER MICHIGAN

CITY           SKY/WX    TMP DP  RH WIND       PRES   REMARKS
ADRIAN         LGT RAIN  43  41  93 N10       30.15R
ALMA           LGT SNOW  34  34 100 NW9       30.20R WCI  26
ANN ARBOR      LGT RAIN  43  42  97 NW7G16    30.13R
BAD AXE        LGT SNOW  37  36  99 NW9       30.15R WCI  30
CARO           MIX PCPN  38  36  93 NW9G16    30.16R WCI  31
DETROIT CITY   LGT RAIN  48  46  93 NW10G22   30.12R
DETROIT        LGT RAIN  49  47  93 NW12      30.12R FOG
FLINT          RAIN      37  36  96 NW9       30.16R WCI  30
GROSSE ILE     LGT RAIN  49  48  99 NW16G22   30.09R
HILLSDALE      RAIN      37  36  93 NW8       30.16R WCI  31
HOWELL         MIX PCPN  38  37  98 NW10      30.16R WCI  31

CITY           SKY/WX    TMP DP  RH WIND       PRES   REMARKS
JACKSON        RAIN      39  38  96 W9        30.17R WCI  33
LAMBERTVILLE   LGT RAIN  47  46  95 NW10G16   30.12R
LANSING        RAIN      36  35  96 NW13      30.20R FOG     WCI  27
LAPEER         RAIN      40  38  95 NW10      30.15R WCI  33
MASON          RAIN      38  35  86 NW8       30.19R WCI  33
MT. CLEMENS    RAIN      47  47 100 NW12      30.10R
PONTIAC        LGT RAIN  40  39  97 NW14      30.12R WCI  32
PORT HOPE        N/A     35  33  92 NW7       30.13R WCI  29
PORT HURON     LGT RAIN  45  43  93 NW12G17   30.11R
TRI CITIES     LGT RAIN  37  34  89 NW12      30.19R FOG     WCI  29
MIDLAND        MIX PCPN  35  34  95 NW9       30.19R WCI  28
TROY           LGT RAIN  45  43  91 NW13G18   30.14R
SAGINAW HB     MIX PCPN  36  34  93 NW13      30.18R WCI  27
$$
MIZ043>046-050>051-056>058-064>065-071>073-077>080-211100-
SOUTHWEST LOWER MICHIGAN

CITY           SKY/WX    TMP DP  RH WIND       PRES   REMARKS
BATTLE CREEK   LGT RAIN  34  32  92 NW17      30.22R FOG     WCI  23
BENTON HARBOR  FRZ RAIN  32  29  88 NW8       30.28R FOG     WCI  25
BIG RAPIDS     CLOUDY    31  28  89 NW8       30.20R WCI  24
COLDWATER      LGT SNOW  37  37 100 NW10      30.21R WCI  30
FREMONT        CLOUDY    31  26  84 NW15G21   30.23R WCI  20
HOLLAND        CLOUDY    32  27  81 NW12      30.26R WCI  23
GRAND RAPIDS   FRZ RAIN  33  32  96 NW13      30.22R WCI  24
IONIA          LGT SNOW  33  32  96 W12       30.21R WCI  24
KALAMAZOO      RAIN      34  31  88 NW9       30.23R FOG     WCI  27
LUDINGTON      CLOUDY    30  26  86 NW8       30.27R WCI  23
MARSHALL       LGT RAIN  36  36  99 NW10      30.21R WCI  28
MOUNT PLEASANT MIX PCPN  34  32  93 NW8       30.20R WCI  27
MUSKEGON       CLOUDY    31  25  78 NW15      30.25R WCI  20
SOUTH HAVEN    MIX PCPN  32  31  94 NW8       30.28R WCI  25
$$
MIZ016>042-211100-
NORTHERN LOWER MICHIGAN

CITY           SKY/WX    TMP DP  RH WIND       PRES   REMARKS
ALPENA         CLOUDY    30  28  92 NW9       30.18R WCI  22
BEAVER ISLAND  CLOUDY    24  18  77 NW12G17   30.25R WCI  13
BELLAIRE       CLOUDY    28  26  91 NW6       30.25R WCI  22
CADILLAC       LGT SNOW  28  28  96 NW9       30.19R WCI  20
CHARLEVOIX     CLOUDY    26  23  87 NW12      30.28R WCI  16
FRANKFORT      CLOUDY    30  26  86 NW8       30.27R WCI  22
GAYLORD        CLOUDY    24  24 100 NW8       30.18R WCI  15
GRAYLING       CLOUDY    28  24  87 NW10G20   30.18R WCI  18
HARBOR SPRINGS CLOUDY    25  19  78 NW10G18   30.24R WCI  15
HOUGHTON LAKE  LGT SNOW  29  26  89 NW16G22   30.18R FOG     WCI  17
MANISTEE       CLOUDY    30  25  81 NW13      30.26R WCI  20
OSCODA         MIX PCPN  34  33  95 NW12      30.15R WCI  25
PELLSTON       CLOUDY    24  19  81 NW14      30.24R WCI  12
ROGERS CITY    CLOUDY    28  24  85 NW8G18    30.20R WCI  19
TRAVERSE CITY  CLOUDY    30  23  75 NW14      30.24R WCI  19
$$
MIZ007>008-015-211100-
EASTERN UPPER MICHIGAN

CITY           SKY/WX    TMP DP  RH WIND       PRES   REMARKS
KINROSS        FLURRIES  20  17  88 NW16G28   30.20R WCI   6
MACKINAC ISLAN CLOUDY    23  19  85 NW14G21   30.22R WCI  11
NEWBERRY       FLURRIES  19  17  90 NW10G17   30.22R WCI   8
S. S. MARIE    CLOUDY    21  16  81 NW14G23   30.19R WCI   8
MUNISING         N/A     20  15  81 NW13      30.27R WCI   7
$$
MIZ004>006-011>014-085-211100-
CENTRAL UPPER MICHIGAN

CITY           SKY/WX    TMP DP  RH WIND       PRES   REMARKS
MANISTIQUE     CLOUDY    20  15  80 NW8       30.26R WCI  11
ESCANABA       FAIR      17  13  84 W6        30.30R WCI   9
MENOMINEE      FAIR      20  14  77 VRB5      30.33R WCI  13
$$
MIZ001>003-009>011-084-211100-
WESTERN UPPER MICHIGAN

CITY           SKY/WX    TMP DP  RH WIND       PRES   REMARKS
IRON MOUNTAIN  MOCLDY    15   9  76 W12       30.26R WCI   2
HOUGHTON       FLURRIES  16   9  74 NW12      30.23R WCI   3
COPPER HARBOR    N/A     16  10  77 N7        30.26R WCI   6
IRONWOOD       FLURRIES   7   3  84 SW16G24   30.32R WCI -11
$$

ABBREVIATIONS USED IN REMARKS
   TC - TEMPERATURE IN CELSIUS
  WCI - WIND CHILL INDEX
   HX - HEAT INDEX
  VSB - VISIBILITY





USA.gov is the U.S. government's official web portal to all federal, state and local government web resources and services.